Biarritz, France

6:35 AM CEST on May 27, 2018 (GMT +0200)
Bayonne-Anglet

Weather History for LFBZ - March, 2013

Change the Weather History Date:

Friday, March 1, 2013

  Actual Average Record
Temperature  
Mean Temperature 43 °F -  
Max Temperature 51 °F 58 °F 68 °F (1997)
Min Temperature 35 °F 44 °F 19 °F (2005)
Degree Days  
Heating Degree Days 22    
Moisture  
Dew Point 37 °F    
Average Humidity 77    
Maximum Humidity 87    
Minimum Humidity 58    
Precipitation  
Precipitation 0.00 in - - ()
Sea Level Pressure  
Sea Level Pressure 30.07 in    
Wind  
Wind Speed 3 mph ()    
Max Wind Speed 10 mph    
Max Gust Speed -    
Visibility 5.4 miles    
Events      
Averages and records for this station are not official NWS values.
T = Trace of Precipitation, MM = Missing Value Source: Averaged Metar Reports

Daily Weather History Graph

Daily Weather History Graph

Search for Another Location

Airport or City:

Astronomy

Mar. 01, 2013 Rise Set
Actual Time 7:42 AM CET 6:55 PM CET
Civil Twilight 7:13 AM CET 7:23 PM CET
Nautical Twilight 6:40 AM CET 7:56 PM CET
Astronomical Twilight 6:07 AM CET 8:30 PM CET
Moon 11:21 PM CET (3/1) 9:11 AM CET (3/1)
Length of Visible Light 12h 09m
Length of Day
11h 12m
Waning Gibbous, 85% of the Moon is Illuminated
Mar 1
Waning Gibbous
Mar 4
Last Quarter
Mar 11
New
Mar 19
First Quarter
Mar 27
Full

Hourly Weather History & Observations

Time (CET) Temp. Windchill Dew Point Humidity Pressure Visibility Wind Dir Wind Speed Gust Speed Precip Events Conditions
12:00 AM 39.2 °F - 32.0 °F 75% 30.06 in 4.3 mi Variable 2.3 mph - N/A   Unknown
12:30 AM 37.4 °F - 33.8 °F 87% 30.06 in 4.3 mi Variable 2.3 mph - N/A   Unknown
1:00 AM 37.4 °F - 33.8 °F 87% 30.04 in 4.3 mi Calm Calm - N/A   Unknown
1:30 AM 39.2 °F - 33.8 °F 81% 30.04 in 5.6 mi Calm Calm - N/A   Unknown
2:00 AM 39.2 °F - 33.8 °F 81% 30.04 in 5.0 mi Calm Calm - N/A   Unknown
2:30 AM 39.2 °F - 33.8 °F 81% 30.04 in 5.0 mi Calm Calm - N/A   Unknown
3:00 AM 39.2 °F 37.0 °F 33.8 °F 81% 30.04 in 6.2 mi ENE 3.5 mph - N/A   Unknown
3:30 AM 39.2 °F 35.9 °F 33.8 °F 81% 30.04 in 6.2 mi ENE 4.6 mph - N/A   Unknown
4:00 AM 35.6 °F 31.7 °F 32.0 °F 87% 30.04 in 5.0 mi ESE 4.6 mph - N/A   Scattered Clouds
4:30 AM 37.4 °F 34.9 °F 33.8 °F 87% 30.04 in 6.2 mi Variable 3.5 mph - N/A   Overcast
5:00 AM 37.4 °F 33.8 °F 33.8 °F 87% 30.04 in 6.2 mi East 4.6 mph - N/A   Overcast
5:30 AM 37.4 °F - 33.8 °F 87% 30.04 in 6.2 mi SSE 2.3 mph - N/A   Overcast
6:00 AM 39.2 °F 37.0 °F 33.8 °F 81% 30.04 in 6.2 mi ESE 3.5 mph - N/A   Overcast
6:30 AM 37.4 °F - 33.8 °F 87% 30.04 in 6.2 mi East 2.3 mph - N/A   Mostly Cloudy
7:00 AM 39.2 °F 35.9 °F 33.8 °F 81% 30.04 in 6.2 mi East 4.6 mph - N/A   Mostly Cloudy
7:40 AM 37.4 °F 34.9 °F 32.0 °F 81% 30.06 in 6.2 mi ESE 3.5 mph - N/A   Mostly Cloudy
8:00 AM 37.4 °F 34.9 °F 32.0 °F 81% 30.06 in 6.2 mi Variable 3.5 mph - N/A   Mostly Cloudy
8:30 AM 37.4 °F - 33.8 °F 87% 30.06 in 6.2 mi SE 2.3 mph - N/A   Mostly Cloudy
9:00 AM 39.2 °F - 33.8 °F 81% 30.06 in 6.2 mi Calm Calm - N/A   Mostly Cloudy
9:30 AM 41.0 °F - 33.8 °F 76% 30.09 in 6.2 mi Calm Calm - N/A   Scattered Clouds
10:00 AM 44.6 °F - 35.6 °F 71% 30.09 in 6.2 mi Variable 2.3 mph - N/A   Scattered Clouds
10:30 AM 44.6 °F 43.1 °F 35.6 °F 71% 30.09 in 6.2 mi SSE 3.5 mph - N/A   Mostly Cloudy
11:00 AM 44.6 °F - 33.8 °F 66% 30.09 in 6.2 mi Variable 2.3 mph - N/A   Mostly Cloudy
11:30 AM 46.4 °F - 35.6 °F 66% 30.09 in 6.2 mi Calm Calm - N/A   Scattered Clouds
12:00 PM 50.0 °F - 35.6 °F 58% 30.09 in - Variable 3.5 mph - N/A   Clear
12:30 PM 48.2 °F - 35.6 °F 62% 30.09 in - North 3.5 mph - N/A   Clear
1:00 PM 48.2 °F - 35.6 °F 62% 30.09 in - Variable 3.5 mph - N/A   Clear
1:30 PM 50.0 °F - 35.6 °F 58% 30.09 in - NW 8.1 mph - N/A   Clear
2:00 PM 50.0 °F - 37.4 °F 62% 30.06 in - NW 9.2 mph - N/A   Clear
2:30 PM 51.8 °F - 37.4 °F 58% 30.06 in - NW 9.2 mph - N/A   Clear
3:00 PM 50.0 °F - 39.2 °F 66% 30.06 in - NW 9.2 mph - N/A   Clear
3:30 PM 50.0 °F - 41.0 °F 71% 30.06 in - NW 9.2 mph - N/A   Clear
4:00 PM 50.0 °F - 39.2 °F 66% 30.06 in - NW 10.4 mph - N/A   Clear
4:30 PM 50.0 °F - 39.2 °F 66% 30.06 in - NW 8.1 mph - N/A   Clear
5:00 PM 48.2 °F - 39.2 °F 71% 30.06 in - NW 8.1 mph - N/A   Clear
5:30 PM 48.2 °F - 41.0 °F 76% 30.06 in - NNW 9.2 mph - N/A   Clear
6:00 PM 48.2 °F - 41.0 °F 76% 30.06 in - NW 6.9 mph - N/A   Clear
7:00 PM 46.4 °F 43.5 °F 41.0 °F 81% 30.09 in 4.3 mi West 5.8 mph - N/A   Scattered Clouds
7:30 PM 46.4 °F 44.3 °F 41.0 °F 81% 30.09 in 4.3 mi WSW 4.6 mph - N/A   Scattered Clouds
7:54 PM 46.4 °F 43.5 °F 41.0 °F 81% 30.09 in 4.3 mi WSW 5.8 mph - N/A   Scattered Clouds
8:30 PM 46.4 °F 43.5 °F 42.8 °F 87% 30.12 in 4.3 mi WSW 5.8 mph - N/A   Unknown
9:00 PM 46.4 °F 43.5 °F 42.8 °F 87% 30.12 in 4.3 mi SSW 5.8 mph - N/A   Unknown
9:30 PM 46.4 °F 44.3 °F 42.8 °F 87% 30.12 in 3.7 mi South 4.6 mph - N/A   Unknown
10:00 PM 46.4 °F 45.2 °F 42.8 °F 87% 30.12 in 4.3 mi SW 3.5 mph - N/A   Unknown
10:30 PM 44.6 °F 43.1 °F 41.0 °F 87% 30.12 in 3.7 mi SW 3.5 mph - N/A   Unknown
11:00 PM 44.6 °F 43.1 °F 41.0 °F 87% 30.12 in 5.6 mi Variable 3.5 mph - N/A   Unknown
11:30 PM 44.6 °F 43.1 °F 37.4 °F 76% 30.12 in 5.6 mi NNE 3.5 mph - N/A   Mist